When you browse on this site, cookies collect data to enhance your experience and personalize the content and advertising you see.
Visit our Privacy Policy to learn more. By continuing to use the site, you agree to this use of cookies and data.

Hourly Weather Booué

Today, 16 July, Thursday

Time Temperature Precipitation Wind Pressure Humidity
00:00 +25°C° 0 mm 1 mps 735 mmHg 91%
01:00 +24°C° 0 mm 1 mps 736 mmHg 93%
02:00 +24°C° 0.1 mm 1 mps 735 mmHg 94%
03:00 +24°C° 0.1 mm 1 mps 735 mmHg 95%
04:00 +21°C° 0.1 mm 0 mps 735 mmHg 96%
05:00 +24°C° 0 mm 1 mps 735 mmHg 95%
06:00 +24°C° 0 mm 1 mps 736 mmHg 94%
07:00 +24°C° 0 mm 1 mps 736 mmHg 93%
08:00 +25°C° 0 mm 1 mps 736 mmHg 87%
09:00 +26°C° 0 mm 1 mps 736 mmHg 81%
10:00 +28°C° 0 mm 1 mps 736 mmHg 75%
11:00 +29°C° 0.1 mm 1 mps 736 mmHg 69%
12:00 +30°C° 0.1 mm 1 mps 736 mmHg 63%
13:00 +32°C° 0.1 mm 2 mps 735 mmHg 57%
14:00 +31°C° 0.6 mm 1 mps 734 mmHg 60%
15:00 +31°C° 0.6 mm 1 mps 733 mmHg 63%
16:00 +30°C° 0.6 mm 1 mps 733 mmHg 65%
17:00 +29°C° 0.7 mm 1 mps 733 mmHg 74%
18:00 +27°C° 0.7 mm 1 mps 734 mmHg 82%
19:00 +25°C° 0.7 mm 1 mps 734 mmHg 90%
20:00 +25°C° 0.6 mm 1 mps 735 mmHg 91%
21:00 +25°C° 0.6 mm 1 mps 736 mmHg 91%
22:00 +25°C° 0.6 mm 1 mps 736 mmHg 92%
23:00 +24°C° 0.5 mm 1 mps 736 mmHg 93%

Tomorrow, 17 July, Friday

Time Temperature Precipitation Wind Pressure Humidity
00:00 +24°C° 0.5 mm 1 mps 736 mmHg 94%
01:00 +23°C° 0.5 mm 2 mps 736 mmHg 95%
02:00 +23°C° 0.1 mm 1 mps 736 mmHg 96%
03:00 +23°C° 0.1 mm 1 mps 736 mmHg 96%
04:00 +23°C° 0.1 mm 1 mps 735 mmHg 96%
05:00 +23°C° 0 mm 1 mps 735 mmHg 96%
06:00 +23°C° 0 mm 1 mps 736 mmHg 96%
07:00 +23°C° 0 mm 1 mps 736 mmHg 95%
08:00 +24°C° 0 mm 1 mps 736 mmHg 89%
09:00 +26°C° 0 mm 1 mps 736 mmHg 83%
10:00 +27°C° 0 mm 1 mps 737 mmHg 76%
11:00 +28°C° 0 mm 1 mps 736 mmHg 71%
12:00 +30°C° 0 mm 1 mps 735 mmHg 66%
13:00 +31°C° 0 mm 1 mps 735 mmHg 61%
14:00 +30°C° 0.4 mm 2 mps 734 mmHg 64%
15:00 +30°C° 0.4 mm 2 mps 733 mmHg 67%
16:00 +30°C° 0.4 mm 2 mps 733 mmHg 69%
17:00 +28°C° 1.1 mm 2 mps 733 mmHg 76%
18:00 +26°C° 1.1 mm 1 mps 734 mmHg 83%
19:00 +25°C° 1.1 mm 1 mps 734 mmHg 90%
20:00 +25°C° 0.8 mm 1 mps 735 mmHg 91%
21:00 +24°C° 0.8 mm 1 mps 736 mmHg 92%
22:00 +24°C° 0.8 mm 1 mps 736 mmHg 93%
23:00 +23°C° 0 mm 1 mps 736 mmHg 94%

Day after tomorrow, 18 July, Saturday

Time Temperature Precipitation Wind Pressure Humidity
00:00 +23°C° 0 mm 1 mps 736 mmHg 95%
01:00 +23°C° 0 mm 1 mps 736 mmHg 96%
02:00 +23°C° 0 mm 1 mps 736 mmHg 96%
03:00 +21°C° 0 mm 0 mps 735 mmHg 96%
04:00 +21°C° 0 mm 0 mps 735 mmHg 97%
05:00 +21°C° 0 mm 0 mps 735 mmHg 96%
06:00 +21°C° 0 mm 0 mps 736 mmHg 95%
07:00 +23°C° 0 mm 1 mps 736 mmHg 94%
08:00 +24°C° 0 mm 1 mps 736 mmHg 88%
09:00 +26°C° 0 mm 1 mps 736 mmHg 81%
10:00 +27°C° 0 mm 1 mps 737 mmHg 75%
11:00 +28°C° 0 mm 2 mps 736 mmHg 69%
12:00 +29°C° 0 mm 2 mps 736 mmHg 64%
13:00 +30°C° 0 mm 2 mps 735 mmHg 59%
14:00 +30°C° 0 mm 2 mps 734 mmHg 58%
15:00 +30°C° 0 mm 2 mps 734 mmHg 58%
16:00 +31°C° 0 mm 2 mps 733 mmHg 57%
17:00 +29°C° 0 mm 2 mps 733 mmHg 63%
18:00 +27°C° 0 mm 1 mps 734 mmHg 70%
19:00 +26°C° 0 mm 1 mps 734 mmHg 77%
20:00 +25°C° 0.1 mm 1 mps 735 mmHg 79%
21:00 +25°C° 0.1 mm 1 mps 735 mmHg 82%
22:00 +22°C° 0.1 mm 0 mps 736 mmHg 85%
23:00 +24°C° 0 mm 1 mps 736 mmHg 86%

19 July, Sunday

Time Temperature Precipitation Wind Pressure Humidity
00:00 +24°C° 0 mm 1 mps 735 mmHg 87%
01:00 +24°C° 0 mm 1 mps 735 mmHg 88%
02:00 +23°C° 0 mm 1 mps 735 mmHg 89%
03:00 +23°C° 0 mm 1 mps 735 mmHg 91%
04:00 +23°C° 0 mm 1 mps 735 mmHg 92%
05:00 +23°C° 0 mm 1 mps 735 mmHg 92%
06:00 +23°C° 0 mm 1 mps 735 mmHg 92%
07:00 +23°C° 0 mm 1 mps 736 mmHg 91%
08:00 +24°C° 0 mm 1 mps 736 mmHg 83%
09:00 +26°C° 0 mm 1 mps 736 mmHg 75%
10:00 +27°C° 0 mm 1 mps 736 mmHg 67%
11:00 +29°C° 0 mm 1 mps 736 mmHg 60%
12:00 +31°C° 0 mm 1 mps 735 mmHg 54%
13:00 +32°C° 0 mm 2 mps 734 mmHg 48%
14:00 +32°C° 0 mm 2 mps 734 mmHg 48%
15:00 +32°C° 0 mm 2 mps 733 mmHg 48%
16:00 +32°C° 0 mm 2 mps 733 mmHg 48%
17:00 +30°C° 0 mm 2 mps 733 mmHg 56%
18:00 +28°C° 0 mm 1 mps 733 mmHg 63%
19:00 +26°C° 0 mm 1 mps 733 mmHg 70%
20:00 +25°C° 0 mm 1 mps 734 mmHg 73%
21:00 +25°C° 0 mm 1 mps 735 mmHg 77%
22:00 +24°C° 0 mm 1 mps 735 mmHg 80%
23:00 +24°C° 0 mm 1 mps 735 mmHg 82%

20 July, Monday

Time Temperature Precipitation Wind Pressure Humidity
00:00 +23°C° 0 mm 1 mps 735 mmHg 84%
01:00 +23°C° 0 mm 1 mps 735 mmHg 86%
02:00 +23°C° 0 mm 1 mps 735 mmHg 88%
03:00 +22°C° 0 mm 1 mps 734 mmHg 90%
04:00 +22°C° 0 mm 1 mps 734 mmHg 92%
05:00 +22°C° 0 mm 1 mps 735 mmHg 90%
06:00 +22°C° 0 mm 1 mps 735 mmHg 89%
07:00 +23°C° 0 mm 1 mps 735 mmHg 88%
08:00 +24°C° 0 mm 1 mps 736 mmHg 80%
09:00 +26°C° 0 mm 1 mps 736 mmHg 73%
10:00 +27°C° 0 mm 1 mps 736 mmHg 66%
11:00 +29°C° 0 mm 1 mps 736 mmHg 59%
12:00 +31°C° 0 mm 1 mps 735 mmHg 52%
13:00 +32°C° 0 mm 1 mps 734 mmHg 46%
14:00 +32°C° 0 mm 1 mps 734 mmHg 45%
15:00 +32°C° 0 mm 1 mps 733 mmHg 45%
16:00 +32°C° 0 mm 1 mps 732 mmHg 45%
17:00 +30°C° 0 mm 1 mps 733 mmHg 52%
18:00 +29°C° 0 mm 1 mps 733 mmHg 59%
19:00 +27°C° 0 mm 1 mps 733 mmHg 66%
20:00 +26°C° 0 mm 1 mps 734 mmHg 69%
21:00 +25°C° 0 mm 1 mps 734 mmHg 72%
22:00 +25°C° 0 mm 1 mps 735 mmHg 76%
23:00 +25°C° 0 mm 1 mps 735 mmHg 77%

21 July, Tuesday

Time Temperature Precipitation Wind Pressure Humidity
00:00 +24°C° 0 mm 1 mps 735 mmHg 79%
01:00 +24°C° 0 mm 1 mps 735 mmHg 81%
02:00 +23°C° 0 mm 1 mps 735 mmHg 84%
03:00 +23°C° 0 mm 1 mps 734 mmHg 87%
04:00 +21°C° 0 mm 0 mps 734 mmHg 90%
05:00 +23°C° 0 mm 1 mps 735 mmHg 90%
06:00 +23°C° 0 mm 1 mps 735 mmHg 90%
07:00 +23°C° 0 mm 1 mps 735 mmHg 91%
08:00 +24°C° 0 mm 1 mps 735 mmHg 84%
09:00 +25°C° 0 mm 1 mps 736 mmHg 77%
10:00 +27°C° 0 mm 2 mps 736 mmHg 71%
11:00 +29°C° 0 mm 2 mps 735 mmHg 63%
12:00 +30°C° 0 mm 2 mps 735 mmHg 55%
13:00 +32°C° 0 mm 1 mps 734 mmHg 48%
14:00 +32°C° 0 mm 1 mps 733 mmHg 46%
15:00 +32°C° 0 mm 1 mps 733 mmHg 45%
16:00 +32°C° 0 mm 1 mps 732 mmHg 44%
17:00 +30°C° 0 mm 1 mps 732 mmHg 51%
18:00 +28°C° 0 mm 1 mps 732 mmHg 58%
19:00 +27°C° 0 mm 1 mps 732 mmHg 65%
20:00 +26°C° 0 mm 1 mps 733 mmHg 69%
21:00 +25°C° 0 mm 1 mps 734 mmHg 72%
22:00 +25°C° 0 mm 1 mps 734 mmHg 76%
23:00 +24°C° 0 mm 1 mps 734 mmHg 78%
Show more